[[{"header":{"parameterUnit":"m.s-1","parameterCategory":2,"la1":30.2991,"la2":30.254,"lo1":-89.0895,"lo2":-89.0444,"dy":0.0017,"dx":0.0017,"nx":28,"ny":28,"refTime":"2023-11-13T09:00:00:Z","depth":"0","parameterNumber":2,"parameterNumberName":"U-component_of_CURRENTS"},"data":[0,0,0,0,0,0,0,0,0,0,0,0,0,0,0,0,0,0,0,0,0,0,0,0,0,0,0,0,0,0,0,0,0,0,0,0,0,0,0,0,0,0,0,0,0,0,0,0,0,0,0,0,0,0,0,0,0,0,0.302,0.302,0,0.303,0.303,0.303,0.3023,0.3022,0.3022,0.3022,0.3003,0.3003,0.3002,0,0,0,0,0,0,0,0,0,0,0,0,0,0.2982,0.2983,0.302,0.302,0.302,0.303,0.303,0.303,0.3023,0.3022,0.3022,0.3022,0.3003,0.3003,0.3002,0,0,0,0,0,0,0,0,0,0,0,0,0,0.2993,0.2983,0.302,0.302,0.302,0.303,0.303,0.303,0.3023,0.3022,0.3022,0.3022,0.3004,0.3003,0.3002,0.3001,0,0,0.3,0.3,0,0,0,0,0,0,0,0,0.2993,0.2995,0.3019,0.302,0.302,0.3027,0.301,0.302,0.3023,0.3019,0.3022,0.3022,0.301,0.3009,0.3008,0.3,0.2999,0.3,0.3,0.3,0.3,0,0,0,0,0,0,0,0.2992,0.2994,0.3021,0.302,0.302,0.3016,0.3017,0.3012,0.3013,0.3019,0.3019,0.3025,0.301,0.3009,0.3008,0.2999,0.3,0.3,0.2999,0.2999,0.3044,0.3045,0,0,0,0,0,0,0.2997,0.2993,0.3021,0.3022,0.3009,0.3017,0.3018,0.3023,0.3013,0.3013,0.3025,0.3024,0.301,0.3008,0.3007,0.3045,0.3,0.2999,0.2999,0.3042,0.3044,0.3046,0,0,0,0,0,0,0.2996,0.2999,0.302,0.301,0.3013,0.3018,0.3023,0.3023,0.303,0.3019,0.3017,0.3033,0.301,0.3008,0.3017,0.3043,0.2999,0.2998,0.304,0.3043,0.3045,0.3096,0,0,0,0,0,0,0.2995,0.2999,0.3003,0.301,0.3014,0.3038,0.3024,0.3024,0.3035,0.3034,0.3025,0.3022,0.3009,0.3018,0.3016,0.3041,0.2998,0.3038,0.3041,0.3044,0.3092,0.3099,0.3106,0,0,0,0,0,0.2994,0.3,0.3003,0.3006,0.3019,0.304,0.3041,0.3042,0.3035,0.3045,0.3041,0.3023,0.3036,0.3019,0.3016,0.3041,0.3037,0.3041,0.3044,0.3089,0.3098,0.3106,0,0,0,0,0,0,0.2983,0.3001,0.3003,0.3014,0.3032,0.304,0.3048,0.3049,0.3052,0.3051,0.3035,0.3033,0.3057,0.3043,0.3024,0.3066,0.3037,0.304,0.3072,0.308,0.3087,0.3088,0.2997,0,0,0,0,0,0.2984,0.2995,0.3014,0.3024,0.3034,0.3043,0.305,0.3055,0.3061,0.3062,0.3054,0.3054,0.3069,0.3068,0.3074,0.3086,0.3097,0.3105,0.3112,0.3118,0.3119,0.3172,0.3183,0.3057,0.3057,0.3057,0,0,0.2982,0.2994,0.3,0.3023,0.3034,0.305,0.3046,0.3066,0.308,0.3059,0.307,0.3078,0.308,0.3103,0.3112,0.3092,0.3161,0.3122,0.3127,0.3125,0.3177,0.3189,0.32,0.306,0.3059,0.3059,0,0,0.2986,0.2998,0.301,0.3028,0.3054,0.3062,0.3072,0.3087,0.3096,0.3113,0.3111,0.3134,0.3137,0.315,0.3156,0.3204,0.3201,0.321,0.3237,0.3288,0.3299,0.3308,0.334,0.3352,0.3207,0.3207,0.3207,0,0.2983,0.3002,0.3018,0.3036,0.3056,0.3069,0.3091,0.3102,0.3116,0.3139,0.3124,0.317,0.3162,0.321,0.3222,0.3219,0.3243,0.3202,0.3297,0.3307,0.3315,0.3346,0.3359,0.321,0.3209,0.3209,0.3209,0,0.2997,0.3015,0.3027,0.3054,0.3077,0.31,0.3125,0.3148,0.3161,0.3176,0.323,0.323,0.3262,0.3267,0.3252,0.3318,0.3314,0.3305,0.3274,0.3331,0.336,0.3372,0.3214,0.3213,0.3212,0.3211,0,0,0.2977,0.3027,0.3029,0.3048,0.3092,0.3107,0.3152,0.32,0.3233,0.3254,0.3303,0.3329,0.3341,0.335,0.3349,0.3377,0.345,0.3364,0.3365,0.3392,0.3562,0.3561,0.3573,0.3466,0.3468,0.347,0.3557,0,0.2984,0.3016,0.3048,0.3081,0.3101,0.3147,0.3185,0.3231,0.3271,0.3316,0.335,0.3387,0.337,0.339,0.3424,0.345,0.3485,0.3427,0.3505,0.3507,0.3497,0.3589,0.3508,0.358,0.3569,0.3571,0.3573,0,0.2982,0.3007,0.3044,0.3102,0.3117,0.3142,0.3222,0.3261,0.3341,0.3371,0.3433,0.346,0.3518,0.3483,0.3575,0.3544,0.3557,0.3567,0.3571,0.3559,0.3529,0.3522,0.3603,0.3557,0.3591,0.3589,0.3588,0,0.2946,0.3,0.3031,0.3048,0.3116,0.3154,0.3196,0.3281,0.3318,0.3411,0.3448,0.3534,0.3574,0.3622,0.3659,0.3627,0.3751,0.3709,0.3723,0.3721,0.3662,0.3652,0.3703,0.3773,0.3773,0.3773,0.3773,0,0.2933,0.2953,0.3013,0.3025,0.3061,0.3131,0.3184,0.3244,0.333,0.3396,0.3469,0.3543,0.3612,0.3694,0.3706,0.3774,0.3804,0.3751,0.3759,0.3677,0.3669,0.3631,0.3593,0.3776,0.3775,0.3775,0.3774,0,0.2884,0.2926,0.2954,0.3024,0.3041,0.3068,0.3144,0.3191,0.3284,0.3377,0.341,0.3559,0.3693,0.3755,0.3849,0.3838,0.3805,0.3897,0.3791,0.3785,0.3732,0.37,0.3589,0.3464,0.3925,0.3925,0.3926,0,0.286,0.2872,0.2925,0.2938,0.2967,0.3012,0.305,0.3143,0.3206,0.3402,0.3451,0.3618,0.3732,0.3875,0.3922,0.3974,0.384,0.3896,0.3813,0.3747,0.3716,0.3538,0.3425,0.3751,0.375,0.3749,0.3749,0,0.2816,0.2838,0.2862,0.2882,0.2912,0.2934,0.3007,0.3033,0.319,0.3284,0.3453,0.3565,0.377,0.3829,0.3918,0.3931,0.374,0.3882,0.3848,0.3624,0.3399,0.3276,0.3664,0.3742,0.3743,0.3744,0.3744,0.3744,0.278,0.2778,0.281,0.2818,0.2846,0.2856,0.2846,0.2945,0.3021,0.3157,0.3365,0.3501,0.3707,0.3844,0.383,0.3813,0.3716,0.3718,0.3696,0.353,0.3367,0.3741,0.3808,0.3809,0.381,0.381,0.3811,0,0.2721,0.2728,0.2744,0.2743,0.273,0.277,0.2814,0.2802,0.2854,0.3061,0.3185,0.3428,0.3535,0.3667,0.3785,0.367,0.3437,0.3564,0.3302,0.3206,0.36,0.3554,0.3527,0.3527,0.3527,0.3527,0.3527,0.3528,0.2694,0.2677,0.2676,0.262,0.2619,0.256,0.2553,0.2568,0.2678,0.2816,0.2971,0.3151,0.3507,0.3763,0.3751,0.3628,0.3299,0.3161,0.3088,0.342,0.3431,0.3442,0.3392,0.3332,0.3332,0.256,0.2555,0.2551]},{"header":{"parameterUnit":"m.s-1","parameterCategory":2,"la1":30.2991,"la2":30.254,"lo1":-89.0895,"lo2":-89.0444,"dy":0.0017,"dx":0.0017,"nx":28,"ny":28,"refTime":"2023-11-13T09:00:00:Z","depth":"0","parameterNumber":3,"parameterNumberName":"V-component_of_CURRENTS"},"data":[0,0,0,0,0,0,0,0,0,0,0,0,0,0,0,0,0,0,0,0,0,0,0,0,0,0,0,0,0,0,0,0,0,0,0,0,0,0,0,0,0,0,0,0,0,0,0,0,0,0,0,0,0,0,0,0,0,0,-0.0092,-0.0093,0,-0.0161,-0.0161,-0.0162,-0.0208,-0.0208,-0.0208,-0.0209,-0.0315,-0.0317,-0.032,0,0,0,0,0,0,0,0,0,0,0,0,0,-0.0041,-0.0042,-0.0092,-0.0093,-0.0094,-0.0161,-0.0162,-0.0162,-0.0208,-0.0208,-0.0208,-0.0209,-0.0314,-0.0317,-0.032,0,0,0,0,0,0,0,0,0,0,0,0,0,-0.0082,-0.0042,-0.0092,-0.0125,-0.0128,-0.016,-0.0162,-0.0163,-0.0208,-0.0208,-0.0209,-0.0209,-0.0313,-0.0317,-0.032,-0.0335,0,0,-0.0332,-0.0334,0,0,0,0,0,0,0,0,-0.008,-0.0084,-0.0119,-0.0122,-0.0126,-0.0176,-0.0183,-0.0222,-0.0208,-0.0178,-0.0209,-0.0209,-0.0271,-0.0279,-0.029,-0.034,-0.0345,-0.0332,-0.0335,-0.0336,-0.0338,0,0,0,0,0,0,0,-0.0077,-0.0081,-0.012,-0.012,-0.0124,-0.0149,-0.0155,-0.019,-0.0222,-0.018,-0.0184,-0.0191,-0.0274,-0.0286,-0.0293,-0.0346,-0.0332,-0.0336,-0.0338,-0.034,-0.0411,-0.041,0,0,0,0,0,0,-0.0065,-0.0079,-0.0117,-0.0122,-0.0103,-0.015,-0.0156,-0.016,-0.0221,-0.023,-0.019,-0.0193,-0.028,-0.0289,-0.0297,-0.0307,-0.0336,-0.034,-0.0342,-0.0411,-0.0411,-0.041,0,0,0,0,0,0,-0.0064,-0.0068,-0.0115,-0.0102,-0.011,-0.015,-0.0154,-0.0161,-0.0174,-0.0228,-0.0239,-0.0195,-0.028,-0.0292,-0.032,-0.0312,-0.0342,-0.0345,-0.0412,-0.0411,-0.041,-0.0335,0,0,0,0,0,0,-0.0062,-0.0067,-0.0064,-0.0101,-0.011,-0.0127,-0.0153,-0.0162,-0.0177,-0.0181,-0.0236,-0.0246,-0.0282,-0.0314,-0.0324,-0.0318,-0.0348,-0.0412,-0.0411,-0.0411,-0.0338,-0.0332,-0.0327,0,0,0,0,0,-0.006,-0.005,-0.0063,-0.0068,-0.0105,-0.0127,-0.0133,-0.0164,-0.0177,-0.0178,-0.0212,-0.0245,-0.0316,-0.0316,-0.0328,-0.0324,-0.0412,-0.0412,-0.0411,-0.0341,-0.0333,-0.0327,0,0,0,0,0,0,-0.0026,-0.0055,-0.007,-0.007,-0.0094,-0.0134,-0.0135,-0.0159,-0.0186,-0.0187,-0.024,-0.0253,-0.0274,-0.0309,-0.0308,-0.0342,-0.037,-0.0371,-0.0313,-0.0306,-0.03,-0.0279,-0.0351,0,0,0,0,0,-0.0017,-0.0017,-0.0052,-0.0051,-0.0059,-0.0097,-0.0109,-0.0129,-0.0159,-0.0171,-0.021,-0.0249,-0.028,-0.0299,-0.0332,-0.0352,-0.0386,-0.0357,-0.0351,-0.0346,-0.0336,-0.0375,-0.0372,-0.0407,-0.0407,-0.0407,0,0,-0.0005,-0.002,-0.0021,-0.0044,-0.0064,-0.0065,-0.0105,-0.0115,-0.0115,-0.0179,-0.0189,-0.023,-0.028,-0.0298,-0.0312,-0.0327,-0.0355,-0.0345,-0.034,-0.0333,-0.0374,-0.037,-0.0367,-0.0407,-0.0407,-0.0407,0,0,0.0025,0.0009,0.0019,0.0006,-0.0017,-0.0038,-0.0038,-0.0073,-0.0087,-0.0107,-0.0148,-0.018,-0.0233,-0.0262,-0.0285,-0.0269,-0.0322,-0.0283,-0.024,-0.0278,-0.0275,-0.0273,-0.0313,-0.0315,-0.0282,-0.0282,-0.0282,0,0.0041,0.0049,0.0019,0.0027,0.0024,-0.002,-0.0007,-0.0026,-0.0067,-0.0072,-0.01,-0.0167,-0.0213,-0.0231,-0.0228,-0.0255,-0.0287,-0.026,-0.0269,-0.0268,-0.0267,-0.0309,-0.0313,-0.0278,-0.0279,-0.0279,-0.0279,0,0.0078,0.0084,0.0092,0.0089,0.0081,0.0086,0.0058,0.0054,0.0027,-0.0002,-0.0028,-0.0091,-0.0129,-0.0153,-0.019,-0.0203,-0.023,-0.0255,-0.0283,-0.0259,-0.0305,-0.031,-0.0273,-0.0274,-0.0275,-0.0276,0,0,0.0121,0.0119,0.0122,0.0136,0.0117,0.012,0.0127,0.0118,0.0129,0.0076,0.008,0.0012,-0.0028,-0.0056,-0.0107,-0.0146,-0.0177,-0.0194,-0.0198,-0.0227,-0.0263,-0.0264,-0.0271,-0.0204,-0.0204,-0.0204,-0.0298,0,0.016,0.0196,0.0179,0.0215,0.0233,0.0206,0.0224,0.021,0.0177,0.017,0.0103,0.0077,0.0011,-0.0007,-0.0054,-0.0139,-0.0186,-0.0149,-0.0287,-0.0291,-0.029,-0.0275,-0.0249,-0.0329,-0.0303,-0.0304,-0.0304,0,0.0207,0.0225,0.0268,0.0294,0.0301,0.0318,0.0339,0.0343,0.0317,0.029,0.0245,0.0185,0.0129,0.0065,-0.0066,-0.004,-0.0142,-0.022,-0.0226,-0.0254,-0.0301,-0.035,-0.0339,-0.0532,-0.0313,-0.0312,-0.0311,0,0.0265,0.0291,0.0332,0.0338,0.0358,0.0384,0.0396,0.0384,0.0402,0.0361,0.036,0.0274,0.0246,0.0111,-0.004,-0.006,-0.0187,-0.0237,-0.0339,-0.0341,-0.0359,-0.0361,-0.0544,-0.0337,-0.0337,-0.0337,-0.0337,0,0.0318,0.0352,0.0368,0.0394,0.0458,0.0449,0.0503,0.0499,0.0503,0.0543,0.0429,0.0443,0.0256,0.0163,-0.0002,-0.0166,-0.0159,-0.0324,-0.036,-0.0333,-0.0331,-0.0532,-0.0655,-0.0341,-0.034,-0.0339,-0.0338,0,0.0371,0.0379,0.0435,0.0472,0.0487,0.0536,0.058,0.0624,0.0608,0.0656,0.0651,0.0575,0.0457,0.026,0.0054,-0.0098,-0.0391,-0.034,-0.0292,-0.032,-0.0601,-0.0719,-0.0959,-0.1061,-0.0477,-0.0478,-0.0478,0,0.0401,0.0437,0.0495,0.0537,0.0556,0.0616,0.0669,0.0678,0.0728,0.0753,0.0799,0.0702,0.0668,0.0363,0.0077,-0.0208,-0.0412,-0.0384,-0.0422,-0.0607,-0.0766,-0.0864,-0.094,-0.0428,-0.0428,-0.0428,-0.0428,0,0.0462,0.0486,0.053,0.0614,0.0678,0.0746,0.0821,0.088,0.0919,0.0968,0.1035,0.1011,0.0736,0.0486,0.0096,-0.0117,-0.0532,-0.0393,-0.0601,-0.0752,-0.0855,-0.0971,-0.0385,-0.0428,-0.0428,-0.0428,-0.0428,-0.0428,0.0512,0.0554,0.0617,0.0695,0.0773,0.0875,0.0943,0.1043,0.1149,0.125,0.123,0.1246,0.0865,0.0344,0.0027,-0.0526,-0.0565,-0.0694,-0.0826,-0.091,-0.1,-0.0408,-0.0477,-0.0477,-0.0478,-0.0478,-0.0478,0,0.0571,0.0614,0.0693,0.0788,0.0879,0.0909,0.1046,0.1129,0.1279,0.1401,0.1461,0.1311,0.082,0.0301,-0.0432,-0.0857,-0.1041,-0.1105,-0.1251,-0.1312,-0.0793,-0.0779,-0.0894,-0.0894,-0.0894,-0.0894,-0.0894,-0.0893,0.0604,0.0681,0.0714,0.0858,0.093,0.105,0.1132,0.1273,0.139,0.1533,0.1581,0.1575,0.121,-0.011,-0.1082,-0.1323,-0.1635,-0.1702,-0.1885,-0.1537,-0.1509,-0.1482,-0.1498,-0.1762,-0.1763,-0.2333,-0.2339,-0.2343]}],[{"header":{"parameterUnit":"m.s-1","parameterCategory":2,"la1":30.2991,"la2":30.254,"lo1":-89.0895,"lo2":-89.0444,"dy":0.0017,"dx":0.0017,"nx":28,"ny":28,"refTime":"2023-11-13T09:00:00:Z","depth":"2","parameterNumber":2,"parameterNumberName":"U-component_of_CURRENTS"},"data":[0,0,0,0,0,0,0,0,0,0,0,0,0,0,0,0,0,0,0,0,0,0,0,0,0,0,0,0,0,0,0,0,0,0,0,0,0,0,0,0,0,0,0,0,0,0,0,0,0,0,0,0,0,0,0,0,0,0,0.2962,0.2962,0,0.2973,0.2973,0.2973,0.2969,0.2969,0.2969,0.297,0.2958,0.2957,0.2957,0,0,0,0,0,0,0,0,0,0,0,0,0,0.2924,0.2925,0.2962,0.2962,0.2963,0.2973,0.2973,0.2973,0.2969,0.2969,0.297,0.297,0.2958,0.2958,0.2957,0,0,0,0,0,0,0,0,0,0,0,0,0,0.2936,0.2925,0.2962,0.2964,0.2965,0.2973,0.2973,0.2973,0.2969,0.2969,0.297,0.297,0.2958,0.2958,0.2957,0.2954,0,0,0.2956,0.2955,0,0,0,0,0,0,0,0,0.2935,0.2937,0.2964,0.2964,0.2965,0.2972,0.2955,0.2966,0.2969,0.2965,0.297,0.297,0.2962,0.2961,0.296,0.2953,0.2953,0.2956,0.2955,0.2955,0.2955,0,0,0,0,0,0,0,0.2935,0.2937,0.2964,0.2964,0.2965,0.296,0.2962,0.2957,0.2961,0.2965,0.2966,0.2971,0.2962,0.296,0.296,0.2952,0.2956,0.2955,0.2955,0.2955,0.3003,0.3004,0,0,0,0,0,0,0.2939,0.2936,0.2963,0.2964,0.2953,0.2961,0.2963,0.2968,0.2961,0.2961,0.2971,0.2971,0.2961,0.296,0.2959,0.3002,0.2955,0.2955,0.2954,0.3001,0.3003,0.3005,0,0,0,0,0,0,0.2939,0.2942,0.2963,0.2952,0.2955,0.2962,0.2968,0.2968,0.2978,0.2967,0.2966,0.2982,0.2961,0.296,0.2972,0.2999,0.2954,0.2954,0.2999,0.3002,0.3004,0.3056,0,0,0,0,0,0,0.2937,0.2941,0.2947,0.2953,0.2956,0.2981,0.2968,0.2968,0.2981,0.2982,0.2975,0.2974,0.2961,0.2973,0.2972,0.2998,0.2954,0.2997,0.3001,0.3003,0.3052,0.306,0.3066,0,0,0,0,0,0.2936,0.2944,0.2947,0.295,0.2963,0.2982,0.2984,0.2986,0.2982,0.2993,0.2991,0.2974,0.2991,0.2974,0.2972,0.2998,0.2996,0.3,0.3003,0.3049,0.3058,0.3066,0,0,0,0,0,0,0.2928,0.2945,0.2948,0.296,0.2977,0.2983,0.2993,0.2995,0.3001,0.3002,0.2987,0.2986,0.3012,0.2998,0.2979,0.3024,0.2994,0.2997,0.303,0.3038,0.3045,0.3046,0.2953,0,0,0,0,0,0.293,0.2942,0.2959,0.297,0.2981,0.2989,0.2997,0.3003,0.3009,0.3012,0.3006,0.3008,0.3024,0.3025,0.3031,0.3045,0.3054,0.3065,0.3072,0.3078,0.308,0.313,0.3141,0.3017,0.3016,0.3016,0,0,0.293,0.2942,0.2948,0.297,0.2981,0.2997,0.2994,0.3015,0.3029,0.3009,0.3024,0.3033,0.3035,0.306,0.307,0.305,0.312,0.3083,0.3088,0.3086,0.3134,0.3147,0.3157,0.3019,0.3018,0.3018,0,0,0.2936,0.2949,0.2962,0.2979,0.3004,0.3012,0.3022,0.3037,0.3048,0.3067,0.3066,0.309,0.3096,0.3108,0.3115,0.3163,0.3161,0.3171,0.3199,0.3248,0.3258,0.3268,0.3298,0.331,0.3168,0.3168,0.3169,0,0.2935,0.2954,0.297,0.2988,0.3007,0.302,0.3043,0.3053,0.307,0.3093,0.308,0.3128,0.3121,0.3168,0.3182,0.3179,0.3202,0.3164,0.3257,0.3266,0.3275,0.3304,0.3316,0.3171,0.3171,0.3171,0.317,0,0.295,0.2969,0.2981,0.3008,0.303,0.3054,0.3077,0.3102,0.3117,0.3132,0.3188,0.3189,0.3221,0.3227,0.3213,0.3278,0.3274,0.3265,0.3233,0.3291,0.3317,0.3329,0.3176,0.3175,0.3174,0.3173,0,0,0.2934,0.2982,0.2985,0.3003,0.3047,0.3061,0.3106,0.3154,0.3187,0.3211,0.3259,0.3287,0.3301,0.3309,0.3309,0.3337,0.3409,0.3325,0.3326,0.3351,0.3516,0.3506,0.3517,0.3424,0.3426,0.3428,0.3511,0,0.2942,0.2974,0.3005,0.3038,0.3058,0.3102,0.314,0.3186,0.3226,0.3271,0.3305,0.3344,0.3329,0.335,0.3384,0.3409,0.3443,0.3387,0.346,0.3462,0.3443,0.3531,0.3233,0.3282,0.3522,0.3524,0.3526,0,0.2941,0.2966,0.3003,0.3059,0.3074,0.3099,0.3178,0.3217,0.3296,0.3327,0.3389,0.3416,0.3474,0.3441,0.353,0.3501,0.3514,0.3522,0.3526,0.3505,0.3474,0.3264,0.3294,0.3545,0.3543,0.3542,0.3541,0,0.2908,0.2961,0.2992,0.3009,0.3075,0.3113,0.3155,0.3239,0.3276,0.3368,0.3405,0.3489,0.3529,0.3576,0.3612,0.3581,0.3699,0.3659,0.3663,0.3661,0.3414,0.3388,0.372,0.372,0.372,0.372,0.372,0,0.2896,0.2917,0.2977,0.2988,0.3026,0.3094,0.3148,0.3206,0.3291,0.3355,0.3428,0.3498,0.3567,0.3644,0.3656,0.3716,0.3749,0.369,0.3696,0.3426,0.3401,0.3625,0.3613,0.3723,0.3722,0.3722,0.3721,0,0.285,0.2892,0.2921,0.2989,0.3007,0.3035,0.3111,0.3158,0.325,0.334,0.3373,0.3515,0.3642,0.3702,0.379,0.3776,0.3823,0.3826,0.3504,0.3472,0.3733,0.3723,0.3841,0.3842,0.3842,0.3843,0.3843,0,0.2828,0.2841,0.2894,0.2907,0.2937,0.2984,0.3022,0.3114,0.3175,0.3362,0.3409,0.3568,0.3667,0.3798,0.3808,0.3846,0.3876,0.3581,0.3471,0.3759,0.3752,0.3741,0.373,0.3153,0.3147,0.3143,0.3139,0,0.2786,0.2809,0.2833,0.2855,0.2886,0.2907,0.298,0.3005,0.3157,0.3243,0.3399,0.3498,0.3658,0.3585,0.3651,0.3629,0.3554,0.35,0.3887,0.319,0.3123,0.3113,0.3122,0.3101,0.3105,0.3108,0.311,0.3111,0.2753,0.2751,0.2784,0.2793,0.2822,0.2831,0.282,0.2905,0.2972,0.3066,0.3272,0.3306,0.3371,0.3333,0.3262,0.3205,0.3449,0.3262,0.3269,0.3282,0.321,0.315,0.3117,0.3121,0.3124,0.3127,0.3129,0,0.269,0.2703,0.272,0.2719,0.2699,0.2748,0.2788,0.2742,0.277,0.2893,0.2977,0.2795,0.2772,0.2823,0.2694,0.2734,0.2639,0.2608,0.2428,0.2473,0.2511,0.2391,0.2085,0.2081,0.2078,0.2075,0,0,0.2663,0.2644,0.2642,0.2583,0.2588,0.2512,0.2503,0.2459,0.2485,0.2444,0.2437,0.2631,0.2761,0.2371,0.2351,0.2187,0.2297,0.2106,0.2955,0.2789,0.2821,0.2919,0.2792,0,0,0,0,0]},{"header":{"parameterUnit":"m.s-1","parameterCategory":2,"la1":30.2991,"la2":30.254,"lo1":-89.0895,"lo2":-89.0444,"dy":0.0017,"dx":0.0017,"nx":28,"ny":28,"refTime":"2023-11-13T09:00:00:Z","depth":"2","parameterNumber":3,"parameterNumberName":"V-component_of_CURRENTS"},"data":[0,0,0,0,0,0,0,0,0,0,0,0,0,0,0,0,0,0,0,0,0,0,0,0,0,0,0,0,0,0,0,0,0,0,0,0,0,0,0,0,0,0,0,0,0,0,0,0,0,0,0,0,0,0,0,0,0,0,-0.0014,-0.0015,0,-0.008,-0.0081,-0.0082,-0.0127,-0.0128,-0.0128,-0.0128,-0.0232,-0.0234,-0.0237,0,0,0,0,0,0,0,0,0,0,0,0,0,0.0035,0.0035,-0.0014,-0.0015,-0.0016,-0.008,-0.0081,-0.0082,-0.0127,-0.0128,-0.0128,-0.0128,-0.0231,-0.0234,-0.0237,0,0,0,0,0,0,0,0,0,0,0,0,0,-0.0004,0.0035,-0.0014,-0.0046,-0.0049,-0.008,-0.0081,-0.0082,-0.0127,-0.0128,-0.0128,-0.0129,-0.023,-0.0234,-0.0237,-0.025,0,0,-0.0248,-0.025,0,0,0,0,0,0,0,0,-0.0002,-0.0006,-0.004,-0.0044,-0.0048,-0.0096,-0.0102,-0.014,-0.0127,-0.0098,-0.0128,-0.0129,-0.0189,-0.0196,-0.0207,-0.0255,-0.0259,-0.0249,-0.0251,-0.0253,-0.0254,0,0,0,0,0,0,0,0.0001,-0.0003,-0.004,-0.0041,-0.0046,-0.007,-0.0076,-0.0109,-0.0141,-0.01,-0.0104,-0.0111,-0.0192,-0.0204,-0.021,-0.0261,-0.0249,-0.0252,-0.0254,-0.0256,-0.0324,-0.0324,0,0,0,0,0,0,0.0012,-0.0,-0.0038,-0.0042,-0.0025,-0.007,-0.0077,-0.008,-0.014,-0.0149,-0.011,-0.0113,-0.0197,-0.0206,-0.0214,-0.0225,-0.0252,-0.0256,-0.0258,-0.0324,-0.0324,-0.0323,0,0,0,0,0,0,0.0014,0.001,-0.0035,-0.0023,-0.0031,-0.007,-0.0074,-0.0081,-0.0094,-0.0147,-0.0157,-0.0116,-0.0198,-0.0209,-0.0236,-0.0229,-0.0258,-0.0261,-0.0325,-0.0324,-0.0324,-0.0251,0,0,0,0,0,0,0.0015,0.0011,0.0013,-0.0022,-0.0031,-0.0048,-0.0074,-0.0082,-0.0098,-0.0102,-0.0155,-0.0165,-0.0199,-0.0231,-0.024,-0.0235,-0.0264,-0.0325,-0.0324,-0.0324,-0.0254,-0.0248,-0.0243,0,0,0,0,0,0.0017,0.0027,0.0014,0.0009,-0.0026,-0.0047,-0.0054,-0.0084,-0.0098,-0.0099,-0.0132,-0.0164,-0.0233,-0.0233,-0.0244,-0.024,-0.0326,-0.0325,-0.0324,-0.0257,-0.025,-0.0244,0,0,0,0,0,0,0.0049,0.0022,0.0007,0.0007,-0.0017,-0.0055,-0.0057,-0.008,-0.0107,-0.0109,-0.016,-0.0171,-0.0193,-0.0226,-0.0225,-0.0258,-0.0285,-0.0286,-0.023,-0.0223,-0.0218,-0.0197,-0.0267,0,0,0,0,0,0.0058,0.0058,0.0024,0.0025,0.0017,-0.002,-0.0032,-0.0051,-0.0081,-0.0093,-0.0131,-0.0168,-0.0198,-0.0217,-0.0248,-0.0267,-0.03,-0.0272,-0.0267,-0.0262,-0.0252,-0.029,-0.0287,-0.032,-0.032,-0.0321,0,0,0.0069,0.0055,0.0053,0.0031,0.0012,0.0011,-0.0028,-0.0038,-0.0039,-0.01,-0.0111,-0.0151,-0.0198,-0.0216,-0.0229,-0.0243,-0.0271,-0.0261,-0.0256,-0.0249,-0.0289,-0.0286,-0.0283,-0.032,-0.032,-0.032,0,0,0.0097,0.0081,0.0091,0.0078,0.0056,0.0036,0.0036,0.0001,-0.0013,-0.0032,-0.0071,-0.0103,-0.0154,-0.0181,-0.0203,-0.0188,-0.0239,-0.0202,-0.016,-0.0197,-0.0194,-0.0192,-0.0231,-0.0233,-0.0201,-0.0201,-0.02,0,0.0112,0.012,0.0091,0.0099,0.0096,0.0053,0.0066,0.0047,0.0008,0.0002,-0.0026,-0.009,-0.0135,-0.0151,-0.0149,-0.0175,-0.0205,-0.018,-0.0189,-0.0188,-0.0187,-0.0228,-0.0231,-0.0197,-0.0197,-0.0198,-0.0198,0,0.0148,0.0153,0.0161,0.0159,0.0151,0.0156,0.0129,0.0125,0.0098,0.007,0.0044,-0.0017,-0.0054,-0.0077,-0.0112,-0.0125,-0.0151,-0.0175,-0.0202,-0.0179,-0.0224,-0.0228,-0.0192,-0.0193,-0.0194,-0.0195,0,0,0.0187,0.0187,0.019,0.0204,0.0185,0.0189,0.0196,0.0188,0.0199,0.0146,0.015,0.0084,0.0045,0.0018,-0.0032,-0.007,-0.0101,-0.0117,-0.012,-0.0149,-0.0184,-0.0191,-0.0198,-0.0127,-0.0127,-0.0128,-0.0218,0,0.0226,0.026,0.0245,0.028,0.0298,0.0272,0.0291,0.0278,0.0245,0.0238,0.0173,0.0148,0.0083,0.0064,0.0019,-0.0064,-0.0109,-0.0074,-0.0208,-0.0211,-0.0215,-0.0202,-0.0163,-0.0238,-0.0223,-0.0223,-0.0224,0,0.027,0.0288,0.033,0.0357,0.0364,0.0381,0.0402,0.0407,0.0382,0.0355,0.0311,0.0252,0.0197,0.0134,0.0006,0.0032,-0.0068,-0.0143,-0.0148,-0.0181,-0.0227,-0.0259,-0.0248,-0.0233,-0.0232,-0.0231,-0.0231,0,0.0325,0.0352,0.0392,0.0399,0.042,0.0445,0.0457,0.0446,0.0464,0.0424,0.0422,0.0338,0.0309,0.0179,0.0029,0.0012,-0.0114,-0.016,-0.0263,-0.0266,-0.027,-0.0272,-0.0258,-0.0257,-0.0257,-0.0257,-0.0257,0,0.0376,0.0409,0.0427,0.0452,0.0515,0.0507,0.056,0.0556,0.0561,0.06,0.0488,0.0501,0.0319,0.0226,0.0066,-0.0097,-0.0088,-0.025,-0.0285,-0.0245,-0.0243,-0.0269,-0.0269,-0.026,-0.026,-0.0259,-0.0258,0,0.0427,0.0435,0.049,0.0528,0.0543,0.059,0.0635,0.0678,0.0662,0.0708,0.0704,0.0628,0.051,0.0316,0.0115,-0.0032,-0.0204,-0.0269,-0.0208,-0.0234,-0.0348,-0.0343,-0.0404,-0.0405,-0.0406,-0.0406,-0.0407,0,0.0455,0.049,0.0548,0.059,0.0609,0.0667,0.072,0.073,0.0778,0.0801,0.0846,0.0748,0.0709,0.0408,0.0131,-0.0147,-0.0194,-0.0305,-0.0337,-0.0332,-0.0361,-0.0355,-0.0349,-0.0324,-0.0323,-0.0323,-0.0323,0,0.0514,0.0537,0.058,0.0663,0.0726,0.0794,0.0868,0.0925,0.0963,0.1007,0.1068,0.1039,0.0769,0.0516,0.0134,-0.0056,-0.0259,-0.0311,-0.0317,-0.0284,-0.0261,-0.0288,-0.0284,-0.0322,-0.0322,-0.0322,-0.0322,-0.0322,0.0561,0.0603,0.0664,0.0741,0.0818,0.0919,0.0985,0.1079,0.1179,0.1257,0.1236,0.1195,0.0913,0.0431,0.0108,-0.0248,-0.0243,-0.0375,-0.0374,-0.0373,-0.0339,-0.0318,-0.0383,-0.0383,-0.0384,-0.0384,-0.0384,0,0.0618,0.066,0.0738,0.0831,0.0922,0.0951,0.1086,0.1159,0.1294,0.136,0.1397,0.1137,0.0849,0.05,-0.0013,-0.0316,-0.0345,-0.042,-0.0384,-0.0382,-0.0381,-0.0347,-0.0394,-0.0395,-0.0396,-0.0397,0,0,0.065,0.0725,0.0758,0.09,0.097,0.109,0.117,0.1288,0.1359,0.1426,0.1408,0.1348,0.0951,0.0582,0.018,-0.0114,-0.019,-0.0179,-0.0136,-0.0044,-0.004,-0.0315,-0.0256,0,0,0,0,0]}],[{"header":{"parameterUnit":"m.s-1","parameterCategory":2,"la1":30.2991,"la2":30.254,"lo1":-89.0895,"lo2":-89.0444,"dy":0.0017,"dx":0.0017,"nx":28,"ny":28,"refTime":"2023-11-13T09:00:00:Z","depth":"4","parameterNumber":2,"parameterNumberName":"U-component_of_CURRENTS"},"data":[0,0,0,0,0,0,0,0,0,0,0,0,0,0,0,0,0,0,0,0,0,0,0,0,0,0,0,0,0,0,0,0,0,0,0,0,0,0,0,0,0,0,0,0,0,0,0,0,0,0,0,0,0,0,0,0,0,0,0.1956,0.1956,0,0.2016,0.2016,0.2017,0.2078,0.2079,0.208,0.2081,0.2158,0.2159,0.216,0,0,0,0,0,0,0,0,0,0,0,0,0,0.1869,0.187,0.1955,0.1956,0.1957,0.2015,0.2016,0.2017,0.2078,0.2079,0.208,0.2081,0.2157,0.2159,0.216,0,0,0,0,0,0,0,0,0,0,0,0,0,0.1913,0.187,0.1955,0.1996,0.2001,0.2015,0.2016,0.2017,0.2077,0.2079,0.2081,0.2082,0.2157,0.2159,0.216,0.2139,0,0,0.2165,0.2166,0,0,0,0,0,0,0,0,0.1911,0.1916,0.1989,0.1994,0.1999,0.2043,0.2014,0.2059,0.2077,0.2046,0.2081,0.2083,0.2121,0.2126,0.213,0.2142,0.2146,0.2165,0.2166,0.2167,0.2167,0,0,0,0,0,0,0,0.1907,0.1914,0.1977,0.199,0.1996,0.2004,0.2012,0.2022,0.2073,0.2049,0.2054,0.2064,0.2124,0.2128,0.2133,0.2147,0.2165,0.2167,0.2168,0.2168,0.2284,0.2286,0,0,0,0,0,0,0.1904,0.1911,0.1975,0.1979,0.196,0.2004,0.2013,0.2025,0.2072,0.2082,0.2062,0.2066,0.2125,0.2131,0.2135,0.2236,0.2167,0.2168,0.2169,0.2281,0.2284,0.2286,0,0,0,0,0,0,0.1902,0.1909,0.1973,0.1948,0.1957,0.2004,0.2017,0.2026,0.2076,0.2083,0.2092,0.211,0.2126,0.2133,0.2189,0.2235,0.2169,0.2171,0.2279,0.2282,0.2285,0.2358,0,0,0,0,0,0,0.1899,0.1908,0.1935,0.1948,0.1958,0.2012,0.2016,0.2026,0.2078,0.2085,0.2126,0.2132,0.2128,0.2187,0.219,0.2236,0.2172,0.2276,0.228,0.2284,0.2353,0.2363,0.2372,0,0,0,0,0,0.1896,0.1919,0.1936,0.1945,0.1987,0.2013,0.202,0.2056,0.2079,0.2107,0.214,0.2133,0.2215,0.2189,0.2193,0.224,0.2274,0.2279,0.2284,0.2349,0.2361,0.2372,0,0,0,0,0,0,0.1896,0.1928,0.1947,0.198,0.2011,0.2026,0.206,0.2081,0.2127,0.2149,0.2154,0.2162,0.2231,0.2225,0.2197,0.2287,0.2245,0.2251,0.2293,0.2305,0.2315,0.2309,0.2173,0,0,0,0,0,0.1907,0.1939,0.1963,0.1997,0.2016,0.2047,0.2071,0.2096,0.2127,0.2152,0.2179,0.2212,0.2244,0.2268,0.229,0.2333,0.2333,0.2369,0.2379,0.2387,0.2387,0.2431,0.2445,0.2302,0.2302,0.2302,0,0,0.1918,0.1941,0.1961,0.2001,0.203,0.2058,0.2067,0.2116,0.2151,0.2151,0.2222,0.2249,0.2264,0.2319,0.2349,0.2326,0.243,0.2393,0.2399,0.2395,0.2438,0.2451,0.2464,0.2305,0.2304,0.2304,0,0,0.1938,0.1978,0.2007,0.2034,0.2085,0.21,0.2124,0.2166,0.2204,0.2262,0.2279,0.2333,0.2379,0.2398,0.2411,0.2485,0.2481,0.2506,0.2549,0.2593,0.2605,0.2615,0.2639,0.2651,0.2509,0.2509,0.2509,0,0.1954,0.1989,0.2021,0.2051,0.2084,0.2123,0.216,0.2192,0.2251,0.229,0.2301,0.2397,0.2411,0.2474,0.2504,0.2507,0.2528,0.2503,0.2605,0.2615,0.2624,0.2646,0.2658,0.2513,0.2513,0.2512,0.2512,0,0.1978,0.2024,0.2047,0.2097,0.2136,0.2178,0.2221,0.2277,0.233,0.2362,0.2457,0.2483,0.2541,0.2559,0.2553,0.2635,0.2628,0.2613,0.2572,0.2643,0.2662,0.2673,0.2519,0.2518,0.2516,0.2515,0,0,0.1963,0.2048,0.206,0.2096,0.2169,0.2195,0.2271,0.234,0.2397,0.2466,0.2538,0.2603,0.2636,0.2652,0.2666,0.2699,0.2782,0.2692,0.2693,0.2709,0.2881,0.2713,0.2708,0.2797,0.28,0.2802,0.2869,0,0.1978,0.2038,0.2084,0.2154,0.2187,0.2257,0.2317,0.239,0.246,0.2536,0.2591,0.2663,0.2665,0.2709,0.2749,0.2778,0.2816,0.2765,0.2815,0.2816,0.2652,0.2716,0.2809,0.2878,0.288,0.2882,0.2883,0,0.1976,0.2021,0.2093,0.2185,0.221,0.2265,0.238,0.2441,0.255,0.2605,0.2694,0.2738,0.2819,0.2798,0.2895,0.2872,0.2888,0.2895,0.2898,0.2718,0.2668,0.2792,0.2903,0.2901,0.29,0.2899,0.2897,0,0.1926,0.2023,0.2086,0.2117,0.2225,0.2293,0.2363,0.2477,0.2533,0.2663,0.2714,0.2818,0.2879,0.2929,0.2969,0.295,0.305,0.3019,0.288,0.2869,0.2967,0.2955,0.3078,0.3078,0.3078,0.3078,0.3078,0,0.1897,0.195,0.2078,0.2107,0.2188,0.2284,0.2382,0.2464,0.2579,0.2648,0.2755,0.2812,0.292,0.2988,0.3004,0.2979,0.309,0.2892,0.2877,0.2997,0.2988,0.2975,0.2962,0.3081,0.308,0.308,0.3079,0,0.1824,0.191,0.1984,0.212,0.2166,0.223,0.2369,0.2428,0.2557,0.2651,0.2696,0.2834,0.2927,0.3001,0.3083,0.3004,0.3004,0.2967,0.3099,0.309,0.2782,0.2773,0.2804,0.2799,0.2794,0.2791,0.2787,0,0.1786,0.1823,0.1972,0.2018,0.2091,0.2196,0.226,0.2399,0.2458,0.2647,0.2672,0.2816,0.2895,0.2856,0.2962,0.2975,0.2942,0.2912,0.2828,0.2773,0.2757,0.2754,0.2751,0.278,0.2779,0.2778,0.2777,0,0.1713,0.1792,0.1853,0.1946,0.2031,0.2092,0.2204,0.2215,0.2385,0.2522,0.2571,0.2612,0.2704,0.2753,0.2783,0.2791,0.2911,0.2864,0.2872,0.2793,0.2745,0.2732,0.2734,0.2761,0.2763,0.2765,0.2766,0,0.1667,0.169,0.1787,0.1849,0.1943,0.1966,0.2031,0.2095,0.2156,0.2357,0.2384,0.2536,0.2686,0.2662,0.2701,0.2686,0.2638,0.2531,0.2556,0.2574,0.2468,0.2371,0.2263,0,0,0,0,0,0.1603,0.1616,0.1675,0.1729,0.1815,0.1864,0.1981,0.2051,0.2211,0.2182,0.2265,0.2341,0.2387,0.2469,0.2407,0.2617,0.2659,0.2534,0.2551,0.2674,0.2692,0.2588,0,0,0,0,0,0,0.1562,0.1618,0.1632,0.1616,0.1628,0.1697,0.1763,0.1873,0.1853,0.2029,0.2059,0.22,0.2276,0.2396,0.2362,0.2388,0.2349,0.2636,0.263,0.2663,0.268,0.2695,0.2594,0,0,0,0,0]},{"header":{"parameterUnit":"m.s-1","parameterCategory":2,"la1":30.2991,"la2":30.254,"lo1":-89.0895,"lo2":-89.0444,"dy":0.0017,"dx":0.0017,"nx":28,"ny":28,"refTime":"2023-11-13T09:00:00:Z","depth":"4","parameterNumber":3,"parameterNumberName":"V-component_of_CURRENTS"},"data":[0,0,0,0,0,0,0,0,0,0,0,0,0,0,0,0,0,0,0,0,0,0,0,0,0,0,0,0,0,0,0,0,0,0,0,0,0,0,0,0,0,0,0,0,0,0,0,0,0,0,0,0,0,0,0,0,0,0,0.0102,0.0101,0,0.0055,0.0054,0.0054,0.0023,0.0022,0.0022,0.0022,-0.0055,-0.0056,-0.0058,0,0,0,0,0,0,0,0,0,0,0,0,0,0.0137,0.0136,0.0102,0.0101,0.0101,0.0055,0.0054,0.0054,0.0023,0.0022,0.0022,0.0022,-0.0054,-0.0056,-0.0058,0,0,0,0,0,0,0,0,0,0,0,0,0,0.0109,0.0136,0.0102,0.008,0.0077,0.0055,0.0054,0.0053,0.0023,0.0022,0.0022,0.0022,-0.0053,-0.0056,-0.0059,-0.007,0,0,-0.0067,-0.0068,0,0,0,0,0,0,0,0,0.011,0.0108,0.0084,0.0081,0.0078,0.0044,0.0038,0.0011,0.0023,0.0043,0.0022,0.0022,-0.0024,-0.0029,-0.0037,-0.0073,-0.0077,-0.0067,-0.0069,-0.007,-0.0071,0,0,0,0,0,0,0,0.0112,0.0109,0.0083,0.0083,0.008,0.0062,0.0058,0.0033,0.0011,0.0042,0.0039,0.0034,-0.0026,-0.0034,-0.0039,-0.0078,-0.0067,-0.007,-0.0071,-0.0073,-0.0128,-0.0128,0,0,0,0,0,0,0.012,0.0111,0.0085,0.0082,0.0094,0.0062,0.0058,0.0056,0.0012,0.0006,0.0034,0.0033,-0.0029,-0.0036,-0.0042,-0.0051,-0.007,-0.0073,-0.0074,-0.0129,-0.0128,-0.0128,0,0,0,0,0,0,0.0121,0.0118,0.0087,0.0095,0.009,0.0062,0.006,0.0055,0.0046,0.0007,-0.0,0.0031,-0.003,-0.0038,-0.0059,-0.0054,-0.0074,-0.0077,-0.0129,-0.0128,-0.0128,-0.0073,0,0,0,0,0,0,0.0122,0.0119,0.0122,0.0096,0.009,0.0078,0.006,0.0054,0.0043,0.004,0.0001,-0.0006,-0.0031,-0.0055,-0.0062,-0.0059,-0.0079,-0.0129,-0.0129,-0.0128,-0.0075,-0.0071,-0.0068,0,0,0,0,0,0.0124,0.013,0.0123,0.0119,0.0094,0.0078,0.0074,0.0052,0.0043,0.0043,0.0018,-0.0005,-0.0058,-0.0057,-0.0065,-0.0063,-0.0129,-0.0129,-0.0128,-0.0077,-0.0072,-0.0068,0,0,0,0,0,0,0.0147,0.0127,0.0118,0.0118,0.0102,0.0073,0.0072,0.0056,0.0036,0.0035,-0.0002,-0.0011,-0.0028,-0.0053,-0.0051,-0.0078,-0.0098,-0.0099,-0.0056,-0.0051,-0.0047,-0.003,-0.0081,0,0,0,0,0,0.0154,0.0155,0.013,0.0132,0.0126,0.01,0.0091,0.0077,0.0055,0.0046,0.0018,-0.001,-0.0033,-0.0047,-0.0071,-0.0087,-0.0113,-0.0091,-0.0087,-0.0084,-0.0076,-0.011,-0.0108,-0.0127,-0.0127,-0.0127,0,0,0.0163,0.0153,0.0153,0.0137,0.0123,0.0123,0.0094,0.0086,0.0087,0.0041,0.0034,0.0003,-0.0033,-0.0048,-0.0058,-0.0068,-0.0093,-0.0083,-0.008,-0.0074,-0.0109,-0.0107,-0.0106,-0.0126,-0.0127,-0.0127,0,0,0.0183,0.0173,0.0181,0.0172,0.0156,0.0142,0.0141,0.0115,0.0106,0.0091,0.0062,0.0037,-0.0002,-0.0023,-0.004,-0.0031,-0.007,-0.0042,-0.001,-0.0043,-0.0042,-0.0041,-0.0074,-0.0076,-0.0041,-0.0041,-0.0041,0,0.0195,0.0202,0.018,0.0186,0.0186,0.0154,0.0164,0.0151,0.0121,0.0117,0.0097,0.0046,0.0012,-0.0002,-0.0001,-0.0021,-0.0047,-0.0023,-0.0037,-0.0037,-0.0037,-0.0071,-0.0074,-0.0038,-0.0039,-0.0039,-0.0039,0,0.022,0.0226,0.0232,0.0231,0.0226,0.023,0.0211,0.0209,0.019,0.0169,0.0149,0.0102,0.0073,0.0054,0.0027,0.0013,-0.0007,-0.0026,-0.0046,-0.0031,-0.0069,-0.0073,-0.0035,-0.0036,-0.0036,-0.0037,0,0,0.0246,0.0249,0.0252,0.0265,0.0253,0.0256,0.0263,0.0258,0.0266,0.0227,0.0231,0.0178,0.0148,0.0127,0.0088,0.0054,0.0025,0.0017,0.0014,-0.001,-0.0049,-0.0054,-0.006,0.0002,0.0002,0.0002,-0.0075,0,0.0274,0.0301,0.0292,0.0322,0.0335,0.0319,0.0336,0.0327,0.0301,0.0297,0.0248,0.0229,0.0178,0.0164,0.0124,0.0054,0.0016,0.0047,-0.0064,-0.0068,-0.007,-0.0065,0.0,-0.0079,-0.008,-0.0081,-0.0081,0,0.0304,0.0319,0.0354,0.038,0.0386,0.0403,0.0422,0.0428,0.041,0.039,0.0356,0.0309,0.0264,0.0215,0.0106,0.0128,0.0047,-0.0016,-0.0021,-0.0046,-0.0081,-0.0098,-0.009,-0.0089,-0.0089,-0.0088,-0.0088,0,0.034,0.0365,0.0399,0.0406,0.0428,0.0453,0.0468,0.046,0.0475,0.0447,0.0445,0.0376,0.0353,0.0245,0.0117,0.0108,-0.0008,-0.0038,-0.0121,-0.0123,-0.012,-0.012,-0.012,-0.012,-0.012,-0.012,-0.012,0,0.0372,0.0401,0.0426,0.0447,0.0501,0.0502,0.0548,0.0549,0.0556,0.0582,0.05,0.0501,0.0359,0.0274,0.0143,0.0006,0.001,-0.0112,-0.0141,-0.0096,-0.0092,-0.0123,-0.0123,-0.0123,-0.0122,-0.0122,-0.0121,0,0.0399,0.0414,0.0462,0.0503,0.052,0.0562,0.0611,0.0643,0.0638,0.067,0.0668,0.0599,0.0489,0.0333,0.0161,0.0053,-0.009,-0.0144,-0.0076,-0.0101,-0.0193,-0.0189,-0.0245,-0.0246,-0.0247,-0.0247,-0.0248,0,0.0414,0.0442,0.0504,0.0542,0.0564,0.0621,0.0667,0.0686,0.0718,0.0733,0.0759,0.0671,0.0601,0.0365,0.0191,-0.0058,-0.01,-0.018,-0.0198,-0.0182,-0.0205,-0.02,-0.0195,-0.0249,-0.0249,-0.0249,-0.0249,0,0.0444,0.0471,0.0509,0.0586,0.0645,0.0705,0.0769,0.08,0.0834,0.0833,0.0828,0.0704,0.0585,0.0385,0.0194,0.0013,-0.0131,-0.0188,-0.0188,-0.0206,-0.0187,-0.0208,-0.0202,-0.0251,-0.0251,-0.0251,-0.0251,0,0.0469,0.0501,0.0558,0.0623,0.07,0.0772,0.08,0.0846,0.0878,0.0891,0.0896,0.0757,0.0684,0.0423,0.0251,0.007,0.0011,-0.0062,-0.0071,-0.007,-0.0004,0.0047,0.0036,0,0,0,0,0,0.0489,0.0524,0.0589,0.0662,0.0741,0.0786,0.0864,0.0887,0.0921,0.0927,0.0911,0.0796,0.0553,0.0453,0.0271,0.0214,-0.0035,-0.0009,-0.0126,-0.0264,-0.0262,-0.0214,0,0,0,0,0,0,0.0503,0.0561,0.0587,0.0683,0.0738,0.0826,0.088,0.0906,0.0903,0.0915,0.0791,0.0738,0.05,0.0657,0.0265,0.0212,0.0108,-0.0119,-0.0124,-0.0266,-0.0263,-0.0261,-0.0212,0,0,0,0,0]}]]